TimeEDT,TemperatureF,Dew PointF,Humidity,Sea Level PressureIn,VisibilityMPH,Wind Direction,Wind SpeedMPH,Gust SpeedMPH,PrecipitationIn,Events,Conditions,WindDirDegrees,DateUTC
12:01 AM,68.0,62.6,83,29.93,10.0,SW,4.6,-,N/A,,Mostly Cloudy,230,2013-07-27 04:01:00
12:16 AM,68.0,62.6,83,29.93,10.0,WSW,4.6,-,N/A,,Mostly Cloudy,240,2013-07-27 04:16:00
12:54 AM,66.9,64.0,90,29.91,10.0,SW,4.6,-,N/A,,Mostly Cloudy,220,2013-07-27 04:54:00
1:51 AM,66.2,64.4,94,29.91,10.0,Calm,Calm,-,N/A,,Overcast,0,2013-07-27 05:51:00
1:54 AM,66.9,64.0,90,29.90,10.0,Calm,Calm,-,N/A,,Overcast,0,2013-07-27 05:54:00
2:54 AM,68.0,64.0,87,29.89,10.0,SW,4.6,-,N/A,,Overcast,220,2013-07-27 06:54:00
3:43 AM,68.0,64.4,88,29.89,10.0,SW,4.6,-,N/A,,Overcast,230,2013-07-27 07:43:00
3:51 AM,68.0,64.4,88,29.88,10.0,SW,4.6,-,N/A,,Overcast,220,2013-07-27 07:51:00
3:54 AM,68.0,64.9,90,29.87,10.0,SW,5.8,-,N/A,,Overcast,230,2013-07-27 07:54:00
4:31 AM,66.2,64.4,94,29.87,10.0,WSW,3.5,-,N/A,,Overcast,240,2013-07-27 08:31:00
4:50 AM,66.2,64.4,94,29.88,10.0,WSW,3.5,-,N/A,,Overcast,240,2013-07-27 08:50:00
4:54 AM,66.9,64.9,93,29.87,10.0,WSW,3.5,-,N/A,,Overcast,250,2013-07-27 08:54:00
5:02 AM,66.2,64.4,94,29.88,10.0,West,3.5,-,N/A,,Overcast,260,2013-07-27 09:02:00
5:16 AM,66.2,64.4,94,29.88,10.0,West,9.2,-,N/A,,Overcast,270,2013-07-27 09:16:00
5:25 AM,66.2,62.6,88,29.88,10.0,West,8.1,-,N/A,,Overcast,280,2013-07-27 09:25:00
5:43 AM,66.2,62.6,88,29.88,10.0,West,6.9,-,N/A,,Overcast,270,2013-07-27 09:43:00
5:54 AM,64.9,61.0,87,29.87,10.0,West,8.1,-,N/A,,Overcast,270,2013-07-27 09:54:00
6:54 AM,62.1,57.9,86,29.89,10.0,West,5.8,-,N/A,,Overcast,270,2013-07-27 10:54:00
7:54 AM,61.0,57.0,87,29.89,10.0,West,5.8,-,N/A,,Clear,260,2013-07-27 11:54:00
8:54 AM,63.0,57.0,81,29.90,10.0,West,5.8,-,N/A,,Clear,260,2013-07-27 12:54:00
9:54 AM,66.0,57.9,75,29.89,10.0,West,5.8,-,N/A,,Clear,280,2013-07-27 13:54:00
10:54 AM,68.0,59.0,73,29.88,10.0,WSW,6.9,-,N/A,,Clear,240,2013-07-27 14:54:00
11:54 AM,71.1,59.0,66,29.88,10.0,WNW,10.4,-,N/A,,Scattered Clouds,290,2013-07-27 15:54:00
12:54 PM,73.0,57.9,59,29.87,10.0,West,12.7,-,N/A,,Mostly Cloudy,270,2013-07-27 16:54:00
1:54 PM,71.1,57.0,61,29.88,10.0,WNW,13.8,-,N/A,,Scattered Clouds,300,2013-07-27 17:54:00
2:54 PM,73.9,55.9,53,29.87,10.0,West,15.0,-,N/A,,Scattered Clouds,260,2013-07-27 18:54:00
3:54 PM,73.0,54.0,51,29.86,10.0,WNW,18.4,25.3,N/A,,Mostly Cloudy,300,2013-07-27 19:54:00
4:54 PM,72.0,51.1,48,29.88,10.0,WNW,12.7,24.2,N/A,,Scattered Clouds,300,2013-07-27 20:54:00
5:54 PM,70.0,51.1,51,29.88,10.0,WNW,11.5,20.7,N/A,,Scattered Clouds,300,2013-07-27 21:54:00
6:54 PM,69.1,50.0,51,29.89,10.0,WNW,12.7,20.7,N/A,,Partly Cloudy,290,2013-07-27 22:54:00
7:54 PM,66.9,50.0,54,29.90,10.0,WNW,10.4,-,N/A,,Partly Cloudy,300,2013-07-27 23:54:00
8:54 PM,63.0,50.0,63,29.91,10.0,NW,9.2,-,N/A,,Clear,310,2013-07-28 00:54:00
9:54 PM,60.1,48.9,67,29.94,10.0,WNW,8.1,-,N/A,,Mostly Cloudy,300,2013-07-28 01:54:00
10:54 PM,59.0,48.0,67,29.95,10.0,West,5.8,-,N/A,,Overcast,270,2013-07-28 02:54:00
11:54 PM,54.0,48.0,80,29.94,10.0,West,4.6,-,N/A,,Clear,270,2013-07-28 03:54:00